QPF
0.00 0.00 0.00 0.00 0.00 0.00 0.00 0.00 0.00 0.00 0.00 0.00 0.00 0.00 0.00 0.00 0.00 0.00 0.01 0.01 0.00 0.00 0.00 0.00 0.03 0.07 0.08 0.03 0.02 0.00 0.00 0.00 0.00 0.00 0.00 0.00 0.01 0.00 0.01 0.01 0.00 0.03 0.01 0.00
0.00 0.00 0.00 0.00 0.00 0.00 0.00 0.00 0.00 0.00 0.00 0.00 0.00 0.00 0.00 0.00 0.00 0.00 0.00 0.00 0.00 0.00 0.00 0.00 0.00 0.02 0.04 0.04 0.03 0.01 0.00 0.00 0.02 0.02 0.01 0.00 0.03 0.01 0.01 0.03 0.05 0.02 0.00 0.00
0.00 0.00 0.00 0.00 0.00 0.00 0.00 0.00 0.00 0.00 0.00 0.00 0.00 0.00 0.00 0.00 0.00 0.00 0.00 0.00 0.00 0.00 0.00 0.00 0.00 0.00 0.00 0.00 0.00 0.00 0.00 0.00 0.02 0.05 0.06 0.00 0.01 0.01 0.02 0.01 0.06 0.03 0.00 0.00
0.00 0.00 0.00 0.00 0.00 0.00 0.00 0.00 0.00 0.00 0.00 0.00 0.00 0.00 0.00 0.00 0.00 0.00 0.00 0.00 0.00 0.00 0.00 0.00 0.01 0.01 0.00 0.00 0.00 0.00 0.00 0.00 0.01 0.08 0.08 0.01 0.01 0.02 0.00 0.03 0.03 0.01 0.00 0.05
0.00 0.00 0.00 0.00 0.00 0.00 0.00 0.00 0.00 0.00 0.00 0.00 0.00 0.00 0.00 0.00 0.00 0.00 0.00 0.00 0.00 0.00 0.00 0.00 0.00 0.01 0.00 0.00 0.00 0.00 0.00 0.00 0.00 0.08 0.10 0.00 0.00 0.00 0.01 0.00 0.01 0.00 0.02 0.03
0.00 0.00 0.00 0.00 0.00 0.00 0.00 0.00 0.00 0.00 0.00 0.00 0.00 0.00 0.00 0.00 0.00 0.00 0.00 0.00 0.00 0.00 0.00 0.00 0.00 0.01 0.00 0.00 0.00 0.00 0.00 0.00 0.00 0.01 0.03 0.01 0.00 0.00 0.01 0.00 0.00 0.00 0.03 0.04
0.00 0.00 0.00 0.00 0.00 0.00 0.00 0.00 0.00 0.00 0.00 0.00 0.00 0.00 0.00 0.00 0.00 0.00 0.00 0.00 0.00 0.00 0.00 0.00 0.00 0.00 0.01 0.00 0.00 0.00 0.00 0.00 0.00 0.00 0.01 0.00 0.00 0.00 0.00 0.00 0.00 0.01 0.02 0.01
0.00 0.00 0.00 0.00 0.00 0.00 0.00 0.00 0.00 0.00 0.00 0.00 0.00 0.00 0.00 0.00 0.00 0.00 0.00 0.00 0.00 0.00 0.00 0.00 0.00 0.00 0.03 0.01 0.01 0.00 0.00 0.00 0.00 0.00 0.00 0.00 0.00 0.00 0.00 0.00 0.00 0.00 0.00 0.00
0.00 0.00 0.00 0.00 0.00 0.00 0.00 0.00 0.00 0.00 0.00 0.00 0.00 0.00 0.00 0.00 0.00 0.00 0.00 0.00 0.00 0.00 0.00 0.00 0.00 0.00 0.00 0.00 0.00 0.00 0.00 0.01 0.02 0.01 0.00 0.00 0.00 0.00 0.00 0.00 0.00 0.00 0.00 0.00
0.00 0.00 0.00 0.00 0.00 0.00 0.00 0.00 0.00 0.00 0.00 0.00 0.00 0.00 0.00 0.00 0.00 0.00 0.00 0.00 0.00 0.00 0.00 0.00 0.00 0.00 0.00 0.00 0.00 0.00 0.00 0.01 0.01 0.00 0.00 0.00 0.00 0.00 0.00 0.00 0.00 0.00 0.00 0.00
0.00 0.00 0.00 0.00 0.00 0.00 0.00 0.00 0.00 0.00 0.00 0.00 0.00 0.00 0.00 0.00 0.00 0.00 0.00 0.00 0.00 0.00 0.00 0.00 0.00 0.00 0.00 0.00 0.00 0.00 0.00 0.01 0.00 0.00 0.00 0.00 0.00 0.00 0.00 0.00 0.00 0.00 0.00 0.00
0.00 0.00 0.00 0.00 0.00 0.00 0.00 0.00 0.00 0.00 0.00 0.00 0.00 0.00 0.00 0.00 0.00 0.00 0.00 0.00 0.00 0.00 0.00 0.00 0.00 0.00 0.00 0.00 0.00 0.00 0.00 0.00 0.00 0.00 0.00 0.00 0.00 0.00 0.00 0.00 0.00 0.00 0.00 0.00
0.00 0.00 0.00 0.00 0.00 0.00 0.00 0.00 0.00 0.00 0.00 0.00 0.00 0.00 0.00 0.00 0.00 0.00 0.00 0.00 0.00 0.00 0.00 0.00 0.00 0.00 0.00 0.00 0.00 0.00 0.00 0.00 0.00 0.00 0.00 0.00 0.00 0.00 0.00 0.00 0.00 0.00 0.00 0.00
0.00 0.00 0.00 0.00 0.00 0.00 0.00 0.00 0.00 0.00 0.00 0.00 0.00 0.00 0.00 0.00 0.00 0.00 0.00 0.00 0.00 0.00 0.00 0.00 0.00 0.00 0.00 0.00 0.00 0.00 0.00 0.00 0.00 0.00 0.00 0.00 0.00 0.00 0.00 0.00 0.00 0.00 0.00 0.00
0.00 0.00 0.00 0.00 0.00 0.00 0.00 0.00 0.00 0.00 0.00 0.00 0.00 0.00 0.00 0.00 0.00 0.00 0.00 0.00 0.00 0.00 0.00 0.00 0.00 0.00 0.02 0.01 0.00 0.00 0.00 0.00 0.00 0.00 0.00 0.00 0.00 0.00 0.00 0.00 0.00 0.00 0.00 0.00
0.00 0.00 0.00 0.00 0.00 0.00 0.00 0.00 0.00 0.00 0.00 0.00 0.00 0.00 0.00 0.00 0.00 0.00 0.00 0.00 0.00 0.00 0.00 0.00 0.00 0.02 0.03 0.04 0.01 0.02 0.00 0.00 0.00 0.00 0.00 0.00 0.00 0.00 0.00 0.00 0.00 0.00 0.00 0.00
0.00 0.00 0.00 0.00 0.00 0.00 0.00 0.00 0.00 0.00 0.00 0.00 0.00 0.00 0.00 0.00 0.00 0.00 0.00 0.00 0.00 0.00 0.00 0.00 0.00 0.01 0.02 0.03 0.04 0.03 0.00 0.00 0.00 0.00 0.00 0.00 0.00 0.00 0.00 0.00 0.00 0.00 0.00 0.00
0.00 0.00 0.00 0.00 0.00 0.00 0.00 0.00 0.00 0.00 0.00 0.00 0.00 0.00 0.00 0.00 0.00 0.00 0.00 0.00 0.00 0.00 0.00 0.00 0.00 0.02 0.14 0.14 0.17 0.14 0.01 0.00 0.00 0.00 0.00 0.00 0.00 0.00 0.00 0.00 0.00 0.00 0.00 0.00
0.00 0.00 0.00 0.00 0.00 0.00 0.00 0.00 0.00 0.00 0.00 0.00 0.00 0.00 0.00 0.00 0.00 0.00 0.00 0.00 0.00 0.00 0.00 0.00 0.06 0.23 0.25 0.31 0.33 0.19 0.04 0.00 0.00 0.00 0.00 0.00 0.00 0.00 0.00 0.00 0.00 0.00 0.00 0.00
0.00 0.00 0.00 0.01 0.00 0.00 0.00 0.00 0.00 0.00 0.00 0.00 0.00 0.00 0.00 0.00 0.00 0.00 0.00 0.00 0.00 0.00 0.00 0.02 0.16 0.25 0.31 0.29 0.21 0.11 0.02 0.00 0.00 0.00 0.00 0.00 0.00 0.00 0.00 0.00 0.00 0.00 0.00 0.00
0.00 0.00 0.00 0.00 0.00 0.00 0.00 0.00 0.00 0.00 0.00 0.00 0.00 0.00 0.00 0.00 0.00 0.00 0.00 0.00 0.00 0.00 0.00 0.04 0.06 0.07 0.18 0.18 0.09 0.03 0.00 0.00 0.00 0.00 0.00 0.00 0.00 0.00 0.00 0.00 0.00 0.00 0.00 0.00
0.01 0.00 0.00 0.00 0.00 0.00 0.00 0.00 0.00 0.01 0.00 0.00 0.00 0.00 0.00 0.00 0.00 0.00 0.00 0.00 0.00 0.00 0.00 0.00 0.00 0.00 0.03 0.02 0.01 0.01 0.01 0.00 0.00 0.00 0.00 0.00 0.00 0.00 0.00 0.00 0.00 0.00 0.00 0.00
0.02 0.02 0.02 0.00 0.00 0.00 0.00 0.00 0.01 0.01 0.01 0.00 0.00 0.00 0.00 0.00 0.00 0.00 0.00 0.00 0.00 0.01 0.04 0.04 0.01 0.00 0.00 0.00 0.00 0.00 0.00 0.00 0.00 0.00 0.00 0.00 0.00 0.00 0.00 0.00 0.00 0.00 0.00 0.00
0.01 0.02 0.03 0.03 0.02 0.00 0.00 0.00 0.00 0.00 0.01 0.00 0.00 0.00 0.00 0.00 0.00 0.00 0.02 0.04 0.03 0.02 0.05 0.05 0.02 0.00 0.01 0.00 0.00 0.00 0.00 0.00 0.00 0.00 0.00 0.00 0.00 0.00 0.00 0.00 0.00 0.00 0.00 0.00
0.00 0.00 0.00 0.02 0.01 0.00 0.00 0.00 0.00 0.00 0.00 0.00 0.00 0.00 0.00 0.00 0.01 0.01 0.09 0.13 0.11 0.12 0.10 0.02 0.00 0.00 0.00 0.01 0.00 0.01 0.00 0.00 0.00 0.00 0.00 0.00 0.00 0.00 0.00 0.00 0.00 0.00 0.00 0.00
0.00 0.00 0.00 0.00 0.00 0.00 0.00 0.00 0.00 0.00 0.00 0.00 0.00 0.00 0.00 0.00 0.00 0.01 0.04 0.08 0.10 0.08 0.02 0.00 0.00 0.02 0.10 0.15 0.15 0.08 0.02 0.00 0.00 0.00 0.00 0.00 0.00 0.00 0.00 0.00 0.00 0.00 0.00 0.00
MSLP
1002.77 1003.57 1004.14 1003.96 1004.32 1004.12 1004.44 1004.80 1004.74 1004.31 1004.10 1005.12 1005.63 1006.25 1006.58 1006.63 1006.83 1007.29 1007.55 1007.53 1007.49 1007.34 1006.93 1007.55 1008.45 1008.96 1009.77 1010.22 1010.73 1011.09 1011.69 1012.20 1013.06 1013.47 1013.79 1014.19 1014.21 1014.13 1014.09 1014.20 1014.15 1014.16 1014.09 1014.38
1003.52 1003.42 1003.21 1003.90 1004.07 1004.21 1004.19 1004.45 1004.45 1004.37 1004.40 1004.96 1005.88 1006.22 1006.18 1006.14 1005.76 1006.08 1006.27 1006.54 1006.74 1006.85 1006.95 1007.43 1008.19 1008.79 1009.59 1009.70 1010.19 1011.08 1011.61 1012.27 1012.75 1013.39 1013.59 1013.81 1013.80 1013.84 1013.85 1013.76 1014.00 1014.04 1014.15 1014.41
1003.51 1002.98 1002.84 1003.14 1003.60 1003.77 1003.64 1003.71 1003.83 1004.34 1004.64 1005.33 1005.90 1006.29 1006.33 1006.00 1005.90 1005.67 1005.80 1005.99 1005.88 1005.98 1006.33 1007.21 1007.92 1008.51 1009.15 1009.71 1010.13 1010.59 1011.20 1011.98 1012.46 1012.80 1013.12 1013.48 1013.65 1013.45 1013.80 1013.73 1013.94 1014.01 1014.06 1014.29
1003.32 1002.67 1002.63 1002.74 1002.89 1003.23 1003.18 1002.67 1003.28 1004.06 1004.91 1005.81 1006.05 1006.70 1006.06 1006.06 1005.84 1005.62 1005.29 1005.28 1004.89 1005.49 1005.80 1006.57 1007.48 1008.24 1008.78 1009.21 1009.72 1010.34 1010.76 1011.50 1012.14 1012.60 1013.10 1013.37 1013.43 1013.64 1013.72 1013.92 1014.14 1013.95 1013.83 1014.04
1003.11 1002.48 1002.30 1002.37 1002.23 1002.67 1002.32 1002.76 1002.93 1003.63 1004.80 1005.86 1006.80 1007.52 1005.71 1005.57 1005.10 1004.61 1004.21 1004.25 1004.43 1004.49 1005.34 1006.06 1006.49 1007.23 1007.94 1009.00 1009.54 1010.08 1010.73 1011.31 1011.80 1012.33 1012.86 1013.49 1013.56 1013.41 1013.71 1014.19 1014.29 1014.41 1014.34 1014.41
1003.23 1002.54 1002.32 1001.87 1001.71 1002.30 1002.31 1002.94 1003.43 1003.96 1005.20 1006.32 1006.15 1006.86 1005.93 1005.23 1003.47 1003.55 1003.42 1003.32 1003.87 1004.43 1004.77 1005.52 1006.33 1007.22 1008.10 1008.72 1009.30 1010.09 1010.87 1011.47 1011.76 1012.29 1012.94 1013.21 1013.42 1013.59 1013.99 1014.40 1014.72 1014.87 1015.08 1015.23
1003.59 1002.65 1002.00 1001.73 1001.71 1002.11 1002.46 1003.72 1004.65 1005.77 1006.38 1006.17 1005.72 1006.70 1004.55 1003.31 1002.32 1002.13 1002.05 1002.57 1003.39 1004.03 1004.71 1005.56 1006.46 1007.25 1007.98 1008.54 1009.22 1009.94 1010.71 1011.30 1011.71 1012.20 1012.69 1012.99 1013.24 1013.60 1013.87 1014.30 1014.87 1015.41 1015.81 1016.01
1004.47 1003.21 1002.04 1001.34 1001.39 1001.74 1002.54 1003.65 1004.93 1005.63 1006.33 1006.39 1006.54 1005.57 1003.20 1002.63 1001.63 1001.63 1001.70 1002.17 1002.90 1003.71 1004.31 1004.85 1005.56 1006.56 1007.38 1008.19 1009.06 1009.72 1010.42 1011.19 1011.51 1012.02 1012.49 1012.92 1013.20 1013.69 1014.21 1014.58 1015.01 1015.64 1016.06 1016.25
1004.51 1003.46 1001.80 1001.34 1001.14 1001.53 1002.50 1003.42 1003.98 1005.44 1006.80 1006.74 1005.80 1004.48 1002.56 1002.17 1001.81 1001.92 1002.10 1002.51 1002.92 1003.27 1003.89 1004.45 1005.36 1006.20 1007.06 1007.80 1008.72 1009.53 1010.18 1011.26 1011.55 1012.11 1012.49 1012.93 1013.46 1013.96 1014.63 1014.97 1015.38 1015.87 1016.29 1016.53
1003.42 1003.55 1002.12 1001.11 1001.09 1001.41 1001.85 1002.69 1004.11 1005.52 1006.91 1007.17 1006.09 1005.14 1003.33 1002.17 1001.75 1001.91 1002.36 1002.20 1002.43 1003.12 1003.95 1004.55 1005.31 1006.18 1006.99 1007.73 1008.57 1009.37 1010.21 1011.03 1011.56 1012.03 1012.61 1013.14 1013.60 1014.20 1014.73 1015.20 1015.81 1016.18 1016.56 1016.75
1003.34 1003.74 1002.57 1001.92 1001.62 1001.66 1002.13 1002.73 1004.13 1005.48 1006.19 1006.63 1006.01 1004.21 1001.90 1001.25 1000.52 1001.06 1001.27 1001.66 1002.09 1002.60 1003.33 1004.14 1005.14 1005.91 1006.66 1007.52 1008.45 1009.30 1010.38 1011.02 1011.69 1012.13 1012.70 1013.27 1014.10 1014.71 1015.11 1015.63 1016.13 1016.57 1016.95 1017.25
1003.31 1003.18 1003.32 1002.12 1001.27 1001.06 1001.45 1001.99 1003.27 1005.17 1006.08 1006.13 1005.33 1002.98 1000.51 999.94 999.93 1000.56 1000.96 1001.36 1001.65 1002.21 1003.27 1004.03 1004.84 1005.25 1006.14 1007.26 1008.25 1009.04 1010.11 1010.92 1011.68 1012.30 1012.96 1013.59 1014.27 1015.05 1015.65 1016.19 1016.55 1016.85 1017.31 1017.70
1003.43 1003.76 1003.75 1002.74 1002.25 1001.65 1001.34 1001.65 1002.37 1003.42 1004.33 1004.85 1004.53 1002.22 1000.29 1000.14 1000.03 1000.16 1000.55 1001.13 1001.62 1002.19 1003.01 1004.23 1005.10 1005.30 1006.16 1007.13 1007.94 1008.89 1009.85 1010.87 1011.82 1012.49 1013.04 1013.78 1014.46 1015.37 1016.00 1016.41 1016.82 1017.16 1017.53 1017.90
1003.89 1004.37 1004.28 1003.46 1002.28 1001.32 1001.22 1001.36 1001.67 1002.21 1003.86 1003.56 1002.76 1001.43 1000.51 1000.03 1000.03 1000.02 1000.22 1000.52 1001.36 1002.16 1002.72 1003.74 1004.71 1005.19 1006.12 1006.91 1007.71 1008.84 1010.01 1011.07 1011.89 1012.73 1013.25 1014.21 1014.88 1015.56 1016.29 1016.96 1017.35 1017.66 1017.90 1018.14
1005.04 1005.27 1004.62 1003.53 1002.66 1001.57 1000.60 1000.52 1000.82 1001.26 1001.50 1002.02 1001.13 1001.24 999.97 999.43 999.04 998.86 999.31 1000.55 1001.37 1002.16 1002.87 1003.41 1004.02 1004.80 1005.93 1007.08 1007.93 1008.99 1010.22 1011.37 1012.10 1012.98 1013.57 1014.40 1015.03 1015.76 1016.35 1016.99 1017.50 1017.76 1018.06 1018.44
1005.56 1005.67 1005.35 1004.31 1002.94 1002.11 1001.20 1000.16 1000.13 1000.15 1000.47 1000.86 1000.72 1000.35 999.18 998.71 998.59 999.14 998.84 999.50 1000.39 1001.28 1002.14 1003.03 1003.99 1004.78 1005.63 1006.63 1007.64 1008.89 1009.99 1011.15 1011.87 1012.78 1013.74 1014.33 1015.00 1015.73 1016.56 1017.07 1017.57 1017.89 1018.15 1018.47
1006.18 1006.34 1006.37 1005.46 1003.57 1002.64 1001.64 1000.00 999.49 999.99 1000.52 1000.80 1001.02 1000.40 999.74 999.11 998.68 998.56 998.78 999.35 999.68 1000.26 1001.12 1002.08 1003.24 1004.34 1005.54 1006.95 1007.61 1008.54 1009.70 1010.95 1012.06 1012.95 1013.71 1014.22 1014.96 1015.84 1016.70 1017.27 1017.63 1017.92 1018.25 1018.50
1005.99 1006.55 1006.79 1006.31 1004.77 1002.99 1001.57 1000.41 1000.04 1000.58 1001.23 1001.41 1001.23 1000.61 1000.02 998.90 997.85 997.58 997.55 998.02 999.05 999.99 1000.87 1001.91 1003.38 1005.61 1006.89 1007.46 1008.49 1009.37 1009.85 1010.87 1011.54 1012.96 1013.76 1014.02 1014.56 1015.63 1016.62 1017.18 1017.82 1018.01 1018.18 1018.39
1005.92 1006.36 1007.00 1006.82 1005.75 1003.39 1001.74 1001.63 1002.05 1001.82 1001.83 1001.81 1001.53 1000.59 999.70 998.88 998.08 997.99 997.81 997.75 997.54 998.91 1001.22 1002.89 1004.12 1005.44 1006.75 1007.99 1009.53 1010.69 1011.31 1012.07 1012.16 1012.91 1013.68 1014.10 1014.61 1015.34 1016.31 1017.11 1017.58 1017.97 1018.11 1018.43
1006.20 1006.18 1006.92 1007.33 1006.25 1004.41 1002.92 1002.01 1001.91 1002.19 1002.57 1001.93 1002.09 1001.51 1000.73 1000.02 999.44 997.85 998.09 998.36 998.73 999.77 1000.87 1002.15 1003.84 1005.17 1006.29 1007.64 1008.56 1010.41 1011.82 1012.31 1012.45 1012.44 1013.15 1013.84 1014.50 1015.24 1016.17 1016.93 1017.23 1017.61 1017.88 1018.27
1007.05 1007.41 1007.31 1006.68 1005.95 1004.44 1003.07 1001.86 1001.46 1002.86 1004.07 1002.75 1002.50 1002.12 1001.58 1001.02 1000.11 998.80 998.21 998.33 999.01 999.91 1000.88 1001.93 1003.12 1004.20 1005.61 1006.49 1007.01 1007.97 1010.36 1011.16 1012.12 1012.36 1013.40 1014.06 1014.58 1015.35 1016.02 1016.71 1016.89 1017.25 1017.69 1017.97
1007.66 1008.07 1007.82 1006.90 1005.92 1004.90 1003.44 1002.45 1003.21 1004.20 1003.59 1003.26 1002.42 1001.94 1001.78 1001.12 999.78 998.99 999.01 998.88 998.83 999.87 1000.43 1001.65 1002.85 1004.21 1005.15 1006.10 1006.55 1006.29 1009.46 1010.78 1011.84 1012.18 1013.34 1013.99 1014.73 1015.43 1015.81 1016.33 1016.53 1016.96 1017.57 1017.86
1008.09 1007.74 1007.99 1007.62 1006.28 1005.06 1004.40 1004.16 1003.88 1003.83 1004.40 1003.45 1002.67 1001.75 1001.51 1001.24 1000.54 1000.25 1000.16 1000.03 1000.34 1000.84 1001.54 1002.04 1002.79 1004.27 1005.42 1006.35 1007.46 1007.04 1009.00 1010.67 1011.34 1012.31 1013.21 1013.95 1014.65 1015.26 1015.77 1016.29 1016.42 1017.06 1017.54 1017.62
1007.89 1007.89 1007.73 1007.26 1006.28 1005.43 1004.62 1004.29 1004.06 1003.66 1004.01 1003.62 1002.77 1002.02 1001.30 1001.24 1000.79 1001.28 1001.34 1001.43 1001.89 1001.89 1002.14 1002.71 1003.39 1004.79 1005.61 1006.29 1006.63 1006.95 1008.94 1009.80 1011.08 1012.18 1013.12 1013.87 1014.72 1015.48 1015.86 1016.10 1016.46 1017.06 1017.09 1017.34
1008.01 1007.92 1007.51 1006.91 1005.85 1004.97 1004.02 1003.73 1003.72 1003.86 1003.71 1003.35 1002.63 1001.80 1001.30 1001.35 1001.15 1000.81 1002.19 1002.89 1003.05 1003.08 1003.09 1003.00 1004.08 1005.09 1006.37 1006.66 1007.60 1008.11 1009.06 1009.58 1010.67 1011.72 1012.91 1013.79 1014.42 1015.13 1015.68 1015.98 1016.01 1016.46 1016.50 1016.57
1007.81 1007.15 1007.07 1006.46 1005.41 1005.03 1004.20 1003.21 1003.33 1003.74 1003.79 1003.41 1002.76 1001.72 1001.21 1001.20 1001.31 1001.28 1001.39 1002.78 1003.30 1003.93 1004.77 1004.43 1004.77 1005.51 1006.28 1006.83 1007.93 1009.19 1009.82 1009.85 1010.69 1011.80 1012.81 1013.45 1014.11 1014.80 1015.45 1015.69 1015.91 1015.93 1015.92 1016.01
Thickness
5840 5818 5801 5822 5824 5831 5827 5813 5815 5826 5842 5827 5817 5812 5818 5826 5825 5817 5815 5814 5818 5819 5827 5823 5813 5805 5796 5794 5792 5792 5787 5784 5777 5772 5766 5763 5763 5765 5764 5763 5762 5761 5762 5759
5819 5807 5834 5830 5828 5826 5824 5816 5810 5827 5837 5832 5816 5814 5820 5825 5832 5830 5826 5822 5821 5821 5820 5816 5809 5806 5798 5798 5798 5788 5784 5779 5773 5768 5765 5763 5764 5763 5762 5762 5759 5759 5759 5756
5806 5829 5843 5836 5827 5824 5824 5819 5815 5816 5824 5823 5817 5804 5809 5826 5827 5832 5830 5830 5830 5830 5827 5817 5812 5811 5805 5800 5798 5793 5788 5780 5776 5777 5769 5767 5765 5763 5758 5758 5758 5758 5757 5755
5814 5835 5834 5828 5822 5826 5807 5840 5833 5821 5805 5779 5817 5771 5805 5813 5818 5824 5831 5831 5836 5835 5837 5830 5819 5811 5810 5806 5805 5799 5796 5788 5784 5779 5772 5769 5764 5759 5759 5757 5756 5759 5759 5758
5809 5831 5828 5819 5829 5834 5824 5839 5832 5829 5801 5795 5791 5771 5797 5817 5819 5826 5837 5839 5840 5845 5839 5832 5832 5823 5819 5807 5803 5803 5798 5792 5790 5784 5777 5770 5767 5768 5765 5759 5757 5756 5759 5758
5807 5833 5828 5826 5842 5835 5847 5829 5819 5813 5798 5766 5793 5785 5786 5802 5831 5835 5844 5848 5845 5842 5845 5840 5837 5827 5817 5815 5810 5803 5795 5792 5791 5786 5779 5775 5770 5766 5761 5758 5755 5754 5753 5751
5794 5808 5830 5840 5824 5833 5831 5796 5762 5764 5761 5765 5793 5773 5808 5836 5846 5851 5854 5854 5846 5843 5841 5836 5831 5824 5819 5816 5811 5804 5796 5791 5791 5786 5781 5777 5772 5768 5764 5762 5756 5749 5745 5742
5755 5762 5811 5836 5824 5818 5812 5796 5760 5753 5752 5771 5769 5771 5812 5844 5858 5859 5862 5859 5852 5844 5843 5840 5837 5830 5825 5818 5812 5805 5799 5790 5792 5787 5783 5779 5775 5769 5764 5761 5754 5747 5742 5739
5746 5759 5817 5826 5833 5828 5811 5791 5809 5767 5761 5763 5776 5800 5834 5843 5845 5849 5850 5849 5845 5845 5843 5841 5837 5832 5826 5821 5813 5807 5801 5789 5789 5785 5782 5778 5772 5766 5759 5754 5749 5743 5739 5736
5775 5755 5800 5820 5826 5824 5813 5817 5785 5763 5757 5752 5761 5772 5791 5831 5836 5841 5841 5846 5849 5845 5839 5838 5835 5830 5824 5819 5813 5807 5799 5789 5785 5783 5778 5773 5769 5763 5757 5750 5742 5738 5734 5730
5774 5761 5786 5802 5791 5792 5793 5790 5787 5772 5759 5744 5743 5762 5821 5834 5851 5845 5852 5852 5849 5848 5843 5840 5834 5831 5825 5819 5812 5805 5793 5787 5780 5778 5774 5769 5761 5755 5751 5744 5738 5733 5728 5722
5777 5757 5751 5772 5803 5814 5806 5800 5788 5753 5761 5749 5750 5772 5847 5851 5856 5854 5851 5851 5854 5853 5843 5840 5834 5834 5827 5818 5810 5803 5794 5786 5779 5775 5769 5763 5755 5747 5741 5736 5732 5728 5721 5715
5776 5750 5735 5757 5778 5794 5796 5798 5792 5774 5766 5750 5753 5773 5841 5841 5851 5854 5852 5852 5848 5848 5842 5834 5829 5830 5823 5816 5809 5801 5793 5783 5775 5770 5764 5758 5751 5741 5735 5730 5726 5721 5715 5708
5770 5742 5744 5738 5758 5782 5787 5797 5793 5785 5753 5764 5769 5803 5830 5838 5838 5847 5853 5855 5848 5847 5844 5836 5831 5828 5821 5816 5808 5797 5788 5780 5773 5766 5759 5749 5744 5736 5728 5720 5715 5711 5707 5703
5754 5736 5749 5760 5766 5781 5793 5799 5798 5793 5791 5782 5801 5791 5822 5838 5840 5854 5857 5847 5843 5841 5838 5838 5835 5829 5820 5810 5802 5793 5784 5773 5767 5758 5752 5745 5739 5731 5724 5716 5710 5706 5701 5695
5742 5733 5736 5743 5768 5768 5775 5795 5800 5802 5799 5790 5797 5793 5833 5843 5844 5843 5854 5854 5848 5844 5842 5839 5832 5825 5817 5809 5800 5789 5780 5770 5765 5757 5748 5743 5737 5728 5718 5711 5705 5700 5695 5689
5730 5723 5717 5721 5746 5753 5758 5787 5805 5802 5789 5794 5782 5807 5822 5831 5837 5843 5845 5851 5852 5849 5846 5840 5833 5825 5815 5804 5798 5786 5777 5770 5760 5752 5746 5741 5733 5723 5712 5704 5700 5695 5689 5684
5723 5716 5706 5709 5726 5731 5767 5783 5792 5777 5781 5787 5794 5808 5821 5831 5848 5854 5860 5858 5853 5849 5844 5838 5828 5810 5799 5794 5784 5772 5770 5765 5761 5749 5741 5737 5731 5720 5709 5702 5693 5689 5685 5680
5721 5704 5704 5699 5699 5741 5763 5763 5757 5759 5768 5783 5787 5805 5822 5832 5843 5846 5851 5859 5864 5855 5836 5823 5816 5804 5792 5781 5761 5750 5743 5748 5750 5744 5735 5731 5725 5717 5706 5696 5690 5684 5680 5673
5697 5705 5697 5686 5703 5708 5745 5764 5769 5765 5741 5781 5782 5792 5803 5815 5806 5832 5843 5848 5847 5841 5834 5825 5812 5800 5791 5780 5773 5750 5734 5736 5740 5742 5734 5727 5720 5711 5701 5692 5687 5680 5675 5668
5680 5679 5686 5689 5695 5713 5750 5763 5773 5721 5728 5769 5776 5784 5792 5798 5810 5830 5840 5842 5840 5835 5829 5823 5813 5801 5793 5785 5777 5762 5744 5741 5736 5736 5725 5719 5713 5703 5695 5687 5684 5677 5669 5663
5670 5666 5669 5681 5693 5701 5738 5752 5729 5734 5750 5760 5772 5780 5783 5795 5810 5825 5827 5832 5834 5827 5825 5818 5807 5795 5788 5780 5774 5773 5743 5736 5731 5729 5719 5714 5704 5696 5691 5684 5680 5672 5662 5656
5663 5672 5667 5677 5686 5712 5725 5734 5740 5742 5737 5751 5762 5775 5780 5785 5793 5803 5808 5814 5813 5812 5809 5807 5799 5787 5776 5769 5760 5760 5743 5727 5727 5720 5713 5706 5697 5690 5684 5677 5673 5663 5654 5649
5669 5666 5666 5676 5690 5700 5716 5729 5732 5735 5734 5747 5761 5769 5777 5777 5786 5784 5789 5793 5794 5797 5796 5793 5788 5773 5764 5762 5759 5755 5738 5730 5722 5715 5707 5698 5689 5681 5674 5670 5664 5654 5649 5642
5659 5660 5664 5669 5687 5700 5717 5723 5727 5727 5734 5741 5754 5765 5772 5773 5777 5782 5771 5769 5772 5775 5771 5776 5769 5761 5751 5750 5742 5736 5730 5726 5720 5712 5701 5692 5684 5675 5668 5663 5659 5650 5645 5641
5657 5661 5652 5657 5686 5693 5706 5723 5723 5719 5716 5727 5738 5753 5763 5766 5768 5772 5772 5765 5761 5755 5743 5752 5752 5749 5743 5740 5730 5716 5712 5717 5713 5703 5694 5686 5679 5671 5662 5657 5651 5645 5641 5637